ONEWEB-0046, 45447

Orbit data source: Space-Track

ONEWEB-0046, 45447 is a payload satellite owned by One Web (UK) in LEO that was launched on Sat, 21 Mar 2020 UTC via a SOYUZ-2-1B launch vehicle from the Tyuratam Missile And Space Complex (TTMTR). Payload-class satellites include a variety of spacecraft equipped with specific instruments for various scientific and technological missions. These include communications satellites like Starlink; space stations such as the ISS; scientific satellites like the Hubble; Earth observation satellites from companies like Planet Labs, Umbra, and HawkEye 360; GPS; miniature CubeSats for education and research; and military/defense satellites.

Loading next visibility...
Identifier
45447, 2020-020Z
Orbit
LEO
Country
Flag of UKUK
Related business
Manufacturer
One Web
Mission
Operational Commercial Communications
Bus & Motor
ARROW, Unknown motor
Mass
148 kg wet, ~140 kg dry
Launch date (UTC)
2020-03-21 (6 years ago)
Launch vehicle
SOYUZ-2-1B
Launch site
Tyuratam Missile And Space Complex (TTMTR)
Object type
Payload
Rocket body
Debris
Shape & HBR
Trap Box + 2 Pan, 6.7 m
Radar Cross Section
3.464 m², Large (>1 m²)

Expand to show TLE details & history
Last TLE update: 12 hours ago

TLE from 12 hours ago
0 ONEWEB-0046
1 45447U 20020Z   26254.66554630  .00000193  00000-0  50820-3 0  9993
2 45447  87.8966   3.8732 0001951 108.0469 252.0872 13.11417729313949
Epoch: 2026-09-11T15:58Z
TLE epoch observation values (Epoch: 2026-09-11T15:58:23.200Z)
Latitude
0.00002°
Longitude
133.5909°
Altitude
1,221.025 km
Speed
7.244 km/s
True Right ascension
00h 15m 29s
True Declination
0° 00' 00"
Sunlit
Object was in full shadow at epoch
Visualization orbit readout
Latitude
Unknown
Longitude
Unknown
Altitude
Unknown
Speed
Unknown
Apparent Right ascension
Unknown
Apparent Declination
Unknown
Sunlit
N/A
Visualization observer readout
Local Sidereal Time
20:52:40
Azimuth
Unknown
Elevation
Unknown
Doppler factor
Unknown
Orbital elements
Apogee altitude
1,216.279 km
Perigee altitude
1,213.316 km
Semi-major axis
7,592.935 km
Eccentricity
0.0002
Inclination
87.8966°
RAAN
3.8732°
Arg. of periapsis
108.0469°
True anomaly
252.06593°
Mean anomaly
252.0872°
Eccentric anomaly
252.07656°
Mean motion
3.28041 °/min
Orbital period
109.74 mins
BSTAR
0.0005082
Loading maneuver chart data...
Computing Atmospheric mass density...
Loading historical data...
Loading historical data...
Loading historical data...
Loading historical data...
Loading historical data...
Loading historical data...
Loading historical data...

Documentation

Showing up to 5 results
|